User: anonymous   Login
Location: Unspecified
(0.0000°N, 0.0000°E)
Time: 05:05:25
(UTC+00:00)
Language:

N. Korean satellite - Orbit

View from above orbital plane
View from above orbital plane
View from above satellite
View from above satellite

Ground track
Ground track

The orbit data is extracted from the following two-line orbital elements,

1 39026U 12072A   15143.13496233  .00004028  00000-0  18532-3 0  9993
2 39026 097.2851 175.5407 0045129 324.9032 034.9232 15.19979564134903
Epoch (UTC): 23 May 2015 03:14:20
Eccentricity: 0.0045129
inclination: 97.2851°
perigee height: 475 km
apogee height: 537 km
right ascension of ascending node: 175.5407°
argument of perigee: 324.9032°
revolutions per day: 15.19979564
mean anomaly at epoch: 34.9232°
orbit number at epoch: 13490

The dashed part of the orbit path shows where the satellite is in the earth's shadow,  

DLR